Wind_Speed
8 9 5 4 2 3 4 5 6 4 3 6 2 5 7 12 6 1 6 7 11 19 18 19 18 16 14 12 11 10 9 8 8 7 7 7 7 6 6 5 7 8 8 9 11 11 11 11 11
3 7 4 3 1 3 1 8 2 9 7 6 4 4 4 10 8 7 9 7 12 19 18 17 18 15 13 12 10 9 9 9 7 6 7 6 6 6 4 5 6 7 8 8 9 9 11 11 11
7 6 2 2 3 2 3 4 8 6 3 4 4 3 3 4 9 6 11 11 13 17 17 17 17 13 12 11 9 10 9 12 8 6 6 6 5 5 5 4 5 5 6 6 7 8 9 10 11
6 2 3 2 8 4 4 7 8 6 4 2 5 1 8 12 6 9 12 12 16 17 16 19 17 15 16 11 10 10 10 9 8 8 7 5 6 6 5 4 4 5 5 4 5 6 7 9 10
5 3 3 5 9 3 3 7 1 6 3 3 7 5 7 8 12 13 10 13 15 15 17 17 16 18 16 12 12 11 10 10 8 7 7 6 6 6 6 5 4 5 5 4 4 4 6 7 9
3 2 4 4 5 6 2 8 6 4 6 1 2 9 7 9 14 9 7 10 13 15 15 17 17 17 15 13 14 14 11 10 10 8 8 8 8 8 8 7 5 5 4 4 5 3 3 4 6
2 4 6 7 7 4 5 7 6 8 9 9 7 7 8 13 9 5 5 8 8 14 14 14 14 18 16 14 16 14 13 13 10 9 8 9 8 8 7 9 8 6 7 5 5 5 2 2 4
2 2 6 5 2 4 5 6 4 5 5 4 1 4 4 8 8 3 1 5 6 9 11 12 10 14 16 15 16 17 16 15 14 12 11 10 10 10 10 10 10 9 8 8 6 6 4 1 2
2 2 5 7 4 5 5 6 3 4 6 5 2 3 2 12 5 5 5 7 9 7 11 12 14 16 15 16 16 18 16 16 16 15 14 14 12 11 12 10 11 11 9 8 7 6 6 5 2
2 2 4 4 5 6 9 5 5 7 8 6 5 7 5 9 6 6 13 13 18 17 14 14 16 18 18 19 22 17 16 16 16 14 13 14 12 16 15 11 13 12 11 9 8 8 8 6 4
2 3 5 4 5 6 7 8 7 7 6 8 6 9 10 11 13 13 16 13 19 23 22 21 18 17 19 18 19 17 17 15 15 14 15 15 12 17 19 18 15 13 13 12 11 9 8 8 8
2 10 6 5 4 2 7 8 9 9 8 8 6 4 6 9 8 8 11 16 16 13 27 24 23 21 18 19 17 17 16 19 18 20 19 19 15 13 16 14 10 12 13 14 13 10 7 11 8
10 11 6 6 7 7 9 10 9 12 10 10 1 5 8 10 4 9 13 14 16 17 16 25 25 24 23 20 19 20 18 22 23 15 22 16 17 14 13 13 11 13 14 14 14 15 12 7 10
7 8 11 11 12 11 12 10 8 8 2 3 7 9 10 6 2 6 15 13 15 14 18 24 26 26 25 25 24 24 23 26 21 23 24 24 23 15 13 12 13 12 12 13 14 15 17 11 10
6 12 12 15 12 4 6 7 12 15 9 8 9 7 7 6 6 5 17 18 22 24 22 17 22 27 27 22 23 25 24 23 25 27 21 15 21 22 19 14 17 14 12 11 13 14 11 14 12
12 11 6 4 5 5 6 6 12 6 2 7 10 7 7 5 9 16 15 15 16 20 23 23 20 11 25 30 42 31 25 28 23 22 21 21 20 21 17 15 12 13 13 13 12 11 12 17 15
9 6 10 4 9 5 9 5 9 6 5 8 9 8 4 6 9 17 14 15 15 17 19 22 23 23 19 24 29 27 31 31 27 26 24 25 23 22 17 17 12 12 14 10 15 10 12 12 6
12 15 15 13 11 14 10 13 10 9 8 11 9 7 5 8 9 13 12 12 17 18 21 22 21 22 22 25 24 27 33 31 30 14 20 25 24 21 20 16 14 12 14 13 14 14 13 8 11
11 14 16 16 13 15 13 16 10 10 9 10 9 6 8 9 6 12 11 14 16 16 20 22 24 24 22 25 27 22 33 28 25 16 50 29 27 23 21 14 17 19 19 16 12 14 10 8 11
10 15 17 15 12 13 12 17 12 12 15 6 6 9 9 7 7 9 12 14 15 18 19 21 22 24 24 23 26 26 29 28 25 28 27 31 30 28 23 20 23 22 21 17 13 15 12 8 8
13 14 16 18 16 15 13 22 15 8 9 8 8 9 8 7 5 6 8 13 15 19 22 23 25 25 23 24 25 27 23 24 24 26 32 28 29 29 25 24 23 23 19 20 16 14 11 7 9
18 10 15 15 13 14 6 19 17 14 10 8 9 8 8 7 6 7 8 12 14 16 19 23 27 25 23 24 23 22 20 19 28 29 29 25 14 22 28 27 25 21 20 19 19 16 12 9 8
18 12 13 12 14 16 20 12 15 10 14 16 12 9 8 8 7 7 8 16 19 20 19 23 24 28 27 29 22 21 19 23 26 25 30 23 30 34 29 27 28 26 23 18 18 16 14 12 12
14 12 12 12 12 15 18 17 17 10 7 12 14 9 8 6 7 7 13 16 18 21 20 22 25 27 29 29 25 21 19 21 23 23 26 17 25 29 30 28 25 22 17 19 17 14 9 9 10
11 11 8 7 7 13 11 13 4 10 13 13 11 8 6 6 6 6 8 12 18 21 23 22 23 27 28 27 32 23 19 14 19 22 18 25 24 8 23 29 28 25 19 19 16 13 11 13 14
10 7 6 15 16 19 14 9 5 11 10 9 8 7 7 7 7 7 8 14 19 23 24 24 21 25 26 25 28 22 16 15 16 16 15 5 23 14 24 26 29 27 23 19 16 13 15 13 11
6 10 13 11 15 12 9 14 9 10 8 4 5 7 7 7 7 7 8 14 17 22 26 25 23 23 26 26 23 19 12 13 12 16 14 21 22 13 39 25 31 27 24 21 18 17 14 13 11
8 8 7 4 5 6 5 10 3 6 8 9 7 8 8 7 8 8 7 13 16 20 23 27 22 20 23 23 19 16 14 12 10 2 16 14 18 15 9 17 19 27 25 19 18 16 15 13 12
8 8 8 7 5 5 5 1 8 7 3 3 4 7 7 7 7 8 13 21 22 20 23 26 23 18 21 25 23 16 10 11 7 8 17 21 22 19 24 13 13 24 22 20 20 18 18 19 15
5 8 8 2 4 2 4 3 6 7 6 6 6 6 7 9 8 9 14 20 23 24 21 24 22 20 20 22 24 15 4 5 7 4 10 19 27 26 28 26 16 19 21 20 20 21 19 18 16
Wind_Direction
345 325 303 273 264 195 250 81 26 152 189 76 107 350 2 50 18 48 147 170 151 153 161 163 168 168 168 163 163 166 168 165 155 147 150 143 133 118 106 96 99 89 80 84 85 84 74 69 65
339 304 255 268 274 259 71 106 171 54 36 352 272 254 235 81 76 118 139 170 150 156 162 164 170 168 168 168 172 171 167 164 157 150 149 155 149 138 109 88 93 93 92 92 89 80 75 72 69
321 286 275 233 254 331 18 30 74 45 275 270 313 177 20 50 62 90 121 142 154 156 158 175 171 172 173 169 169 178 174 166 161 157 169 163 162 157 140 110 95 92 82 89 87 76 73 70 66
317 211 252 256 276 76 1 66 47 311 144 126 329 317 91 41 74 107 142 154 158 159 161 182 180 179 176 178 179 188 180 180 171 170 175 181 181 176 164 148 126 121 106 93 89 78 75 71 65
249 269 271 228 259 60 48 65 356 293 325 313 19 335 87 71 91 108 132 149 156 163 169 175 186 189 192 189 191 201 188 192 191 188 190 195 193 185 178 186 161 144 138 122 122 102 84 66 63
300 219 277 268 10 90 6 54 322 272 300 5 4 313 92 112 82 95 130 157 162 166 176 178 186 192 194 196 196 190 194 195 197 202 201 202 211 197 191 193 197 161 164 169 151 139 116 84 69
281 329 279 325 316 353 84 20 17 1 316 43 343 322 82 70 80 93 155 164 169 168 165 171 188 197 198 199 203 198 191 191 205 209 207 206 193 198 210 205 197 187 181 211 184 168 187 109 76
276 246 285 280 351 19 67 345 65 337 327 318 76 341 81 80 55 58 208 154 159 162 173 181 180 200 202 201 197 202 202 206 214 217 220 218 216 211 212 211 206 200 195 199 203 185 199 188 85
298 284 275 342 34 18 73 350 146 58 254 263 290 275 16 115 148 179 203 212 174 189 185 190 181 191 200 209 222 220 219 218 219 223 221 220 218 227 217 218 216 208 203 205 206 203 193 220 179
243 255 322 32 12 344 343 315 322 308 311 299 264 261 354 7 329 257 193 214 184 188 201 207 202 199 195 205 210 212 217 217 221 219 217 223 212 218 220 206 210 221 213 208 210 210 204 220 194
217 262 7 333 36 343 308 303 299 318 291 273 329 340 350 335 313 295 289 237 214 197 192 196 206 207 202 208 209 200 203 215 214 213 214 221 209 239 202 199 210 214 212 212 216 213 215 211 210
283 268 256 297 300 275 279 303 290 274 267 278 298 6 324 294 288 314 310 304 312 219 191 192 195 200 211 209 210 210 202 215 213 216 214 218 214 197 208 200 208 212 211 209 217 213 210 252 238
250 252 275 291 262 254 266 265 265 268 265 270 275 213 242 255 17 335 328 310 301 303 205 191 195 199 202 210 215 203 211 219 221 231 208 208 216 237 199 207 206 214 211 209 215 216 221 226 209
322 316 286 277 267 259 252 262 269 250 261 218 240 244 239 192 119 335 311 352 342 313 282 196 196 208 199 211 213 218 217 218 211 214 211 214 213 223 223 225 223 215 210 223 218 216 219 193 183
302 287 285 262 242 250 46 278 244 247 222 211 244 249 304 155 98 29 29 1 342 332 330 340 210 208 204 200 233 228 218 214 217 207 210 212 204 211 218 224 234 212 215 215 217 211 219 178 215
269 260 276 161 147 128 131 287 295 127 188 227 263 283 274 58 46 42 21 357 341 330 329 325 323 291 221 230 220 222 227 226 218 204 205 204 209 213 206 220 202 208 209 210 197 203 206 227 197
239 263 276 271 189 157 192 265 307 292 268 266 260 272 262 60 55 45 15 360 347 347 338 332 327 321 315 239 245 220 221 229 219 215 209 200 204 210 218 216 211 210 215 227 176 128 204 208 164
305 304 306 307 311 307 270 256 247 259 288 276 275 280 110 73 60 51 23 4 9 359 354 343 340 328 314 299 302 232 232 231 229 210 240 209 198 194 211 208 201 198 190 167 168 174 193 161 142
312 298 289 287 289 288 276 278 286 287 266 256 227 242 78 62 56 63 32 12 7 7 7 354 339 331 321 308 292 252 230 232 234 238 221 200 191 190 194 188 177 175 170 176 174 165 169 116 155
286 284 281 283 284 288 299 284 270 264 253 257 119 98 89 63 31 39 24 19 4 7 5 351 346 330 318 313 297 289 239 237 234 223 220 206 188 185 183 182 183 173 170 172 168 164 161 167 149
269 279 290 289 303 281 286 274 270 267 82 103 87 95 91 84 50 45 34 23 10 6 355 347 342 339 322 311 309 286 293 235 242 238 225 210 194 184 176 178 162 168 168 172 169 172 167 145 199
279 280 295 303 305 285 308 289 284 279 163 161 132 110 92 74 43 40 25 14 10 12 357 338 338 340 337 329 324 285 273 237 236 236 235 222 249 199 178 171 172 170 169 167 166 175 175 172 171
290 330 311 307 292 294 281 274 281 284 284 170 124 102 81 53 39 23 16 8 7 359 355 350 343 338 343 343 334 326 274 251 241 238 232 223 207 204 180 170 167 170 156 161 171 175 181 196 172
314 303 294 282 272 267 277 267 278 292 310 110 107 94 69 34 34 9 7 7 354 350 345 351 347 339 339 343 336 334 336 246 237 237 234 224 231 195 174 171 171 172 165 168 170 167 172 149 144
276 279 282 276 255 266 295 300 36 58 42 76 82 66 57 35 20 351 358 354 345 344 341 344 346 335 335 336 347 331 328 307 249 250 241 204 215 275 190 173 168 164 161 161 161 163 151 144 143
309 286 276 289 287 285 291 270 292 102 86 84 56 34 18 11 5 354 345 342 340 334 335 333 340 333 329 333 344 331 323 303 276 259 263 186 102 123 251 185 164 158 151 152 158 153 143 146 135
327 291 300 300 285 288 267 273 118 117 93 40 20 26 15 356 354 338 338 342 331 325 325 326 327 331 328 326 332 342 326 319 274 267 238 155 138 345 12 339 155 151 149 149 148 146 136 130 131
226 284 310 284 290 270 275 281 46 73 42 354 0 11 354 343 344 346 337 331 325 321 321 321 318 321 321 328 324 352 321 301 290 185 145 155 164 195 6 26 148 147 141 146 141 140 133 135 130
312 278 262 290 282 256 292 251 131 101 248 281 340 355 338 353 345 349 349 340 328 319 317 316 311 314 326 329 328 348 320 277 250 214 163 175 160 156 185 240 151 136 137 141 133 137 131 121 125
7 310 310 253 281 336 290 284 139 89 39 359 8 351 359 358 12 354 338 325 320 315 314 311 317 316 326 330 328 328 5 182 199 177 174 190 163 161 180 171 166 144 137 137 134 133 130 130 131
Height
759 758 759 760 780 774 770 757 738 745 742 731 729 736 742 739 750 777 751 753 755 757 761 763 765 768 772 774 777 778 779 781 782 784 785 786 787 788 787 788 788 788 788 788 789 789 789 789 789
759 759 758 759 782 782 767 745 748 745 738 732 732 732 737 751 737 749 752 754 755 757 760 764 765 768 771 774 777 779 778 781 782 784 785 786 787 788 789 790 790 790 790 790 790 791 790 790 789
760 759 762 766 769 775 771 743 746 739 734 735 735 727 732 748 739 744 749 752 755 758 761 765 767 770 772 774 777 778 779 780 782 785 786 786 788 788 788 790 791 792 793 793 792 792 792 792 790
760 757 758 777 774 754 749 745 743 744 735 733 732 741 734 739 739 745 749 751 753 757 759 762 765 769 772 774 776 778 779 781 782 783 785 787 788 789 789 790 791 792 793 794 794 794 794 793 792
759 758 774 772 763 747 741 743 744 749 741 738 737 744 746 743 744 746 751 754 755 758 758 762 763 767 770 773 776 778 779 781 782 783 785 786 788 789 790 791 791 792 793 793 794 794 794 794 794
766 759 778 776 759 747 743 742 745 746 741 740 743 744 747 744 746 750 754 755 755 758 758 760 763 767 770 772 773 776 778 780 782 782 783 784 786 788 788 790 792 792 794 794 794 794 794 793 794
768 773 777 767 764 754 748 744 752 753 750 753 744 754 749 746 749 751 754 755 757 758 761 762 765 767 769 770 773 774 776 777 779 781 782 783 784 786 788 789 789 790 793 794 794 795 795 794 794
766 769 771 763 765 765 752 750 748 753 755 744 742 755 758 750 751 751 753 753 755 758 761 761 764 766 768 770 770 770 771 774 776 778 780 781 783 784 785 787 788 789 790 792 794 795 794 794 795
762 781 780 767 762 764 750 757 746 745 751 745 743 744 743 745 748 750 752 753 754 756 758 760 760 763 767 769 770 771 771 771 771 774 777 778 779 783 783 784 786 788 790 791 793 794 794 794 795
769 778 768 757 758 762 757 756 754 756 755 750 744 739 741 743 745 746 747 748 749 752 755 757 758 759 760 762 763 766 768 770 772 773 774 775 776 778 780 782 784 787 789 790 791 793 794 795 795
762 776 758 757 755 757 760 758 750 756 763 753 752 746 743 745 746 745 743 742 742 743 746 749 754 757 759 762 763 765 766 768 768 769 771 772 772 774 777 777 781 783 786 789 791 792 793 794 794
775 760 757 757 754 759 762 755 758 755 753 744 742 743 745 746 745 742 741 740 739 739 739 744 747 750 756 759 761 763 765 767 768 767 767 770 771 773 774 774 777 780 783 786 789 790 792 793 795
766 761 753 753 753 756 755 759 758 752 743 740 740 742 745 743 741 742 742 739 737 737 739 740 744 746 750 754 755 756 760 761 764 766 762 765 768 771 773 774 776 779 781 784 787 789 789 790 791
757 759 757 753 752 750 754 753 751 743 736 739 740 741 739 737 739 742 742 740 739 738 736 736 737 746 744 747 746 748 753 756 756 760 758 756 761 764 768 772 774 777 779 782 784 786 787 789 788
759 769 758 750 745 747 749 760 753 735 734 739 738 736 735 736 737 740 741 744 744 741 739 738 736 735 741 744 751 744 745 750 750 753 756 755 758 761 762 767 771 774 776 778 781 784 787 786 786
768 764 773 744 745 749 754 769 744 730 736 742 739 736 736 736 737 743 745 746 746 746 741 737 736 738 738 743 731 736 740 741 748 750 750 751 755 759 762 761 766 770 773 775 778 782 785 781 785
761 774 761 750 742 746 755 759 743 734 737 741 739 736 734 736 738 744 749 750 749 748 746 740 736 734 735 739 736 730 736 739 744 743 742 744 750 752 760 759 763 767 769 770 775 776 779 785 786
774 769 760 764 749 743 750 750 740 735 735 738 735 733 733 737 743 746 751 753 751 749 747 742 737 733 730 729 728 733 733 734 738 725 746 742 744 749 754 755 759 764 767 769 772 776 781 782 784
763 768 769 757 746 749 747 741 737 733 732 732 731 733 738 742 743 747 752 752 751 750 748 745 742 736 731 728 726 724 722 725 731 726 726 736 739 743 749 749 755 760 764 768 771 775 779 781 780
767 773 769 752 743 745 744 740 733 728 722 724 729 735 740 744 747 750 751 752 753 749 748 745 742 739 732 727 724 722 719 719 725 732 734 733 731 733 739 744 752 756 761 766 769 772 777 779 781
765 768 762 759 748 742 746 739 734 722 725 726 729 735 743 749 751 753 753 752 753 751 748 744 741 738 732 727 721 717 716 717 720 724 729 726 713 732 729 739 746 753 758 763 768 772 773 777 781
767 753 751 753 762 768 749 757 740 728 735 736 738 742 749 753 756 755 754 753 752 750 748 744 740 736 731 725 719 716 715 713 714 716 717 716 719 722 729 735 743 748 754 762 767 770 774 777 779
762 753 757 759 765 766 756 766 738 728 725 734 740 748 753 757 759 758 756 753 750 750 748 744 739 735 730 724 718 714 713 710 711 712 712 716 725 728 730 736 741 746 752 758 765 769 771 775 777
760 763 762 762 767 775 756 757 743 734 726 734 743 753 757 761 760 760 756 753 752 750 748 744 738 735 729 724 717 714 710 708 709 709 712 723 729 723 725 733 740 747 749 756 761 766 769 772 775
765 772 785 779 776 767 740 745 748 747 746 746 751 758 761 762 760 761 755 752 751 749 747 743 738 735 729 724 717 711 708 707 708 707 710 718 727 734 726 729 734 743 749 753 759 765 768 770 773
783 783 794 792 785 771 751 758 742 752 754 758 762 763 763 763 761 760 757 754 751 750 746 743 738 735 729 724 719 712 707 707 708 707 709 718 729 735 737 733 731 740 745 751 759 764 767 770 773
782 790 774 779 770 774 762 746 752 757 763 767 765 765 767 766 762 760 757 754 753 750 746 742 737 734 729 724 718 712 709 707 706 705 706 713 715 719 700 726 730 737 744 752 757 761 765 770 775
786 775 789 783 787 782 759 748 767 772 788 773 771 769 770 767 763 759 756 754 752 749 743 740 737 732 729 725 721 714 710 709 709 707 708 714 717 716 738 732 728 739 743 753 755 761 767 771 776
784 783 778 779 783 786 783 767 773 785 787 780 772 770 769 762 760 758 756 754 750 746 742 739 735 731 728 726 721 715 711 713 710 710 708 718 718 721 733 740 739 743 745 754 755 763 768 771 777
785 788 788 803 795 794 793 780 759 767 771 770 769 767 765 764 762 761 760 756 751 745 740 737 733 729 728 727 722 719 712 715 713 708 707 715 712 716 725 735 742 744 750 754 758 764 769 773 779